GW0115 Weather Reports


time (UTC)temp
F
wind
direction
speed
knots
gust
knots
rain 1hr
in
rain 24hr
in
rain mn
in
humidity
%
barometer
mb
20260510120050 53 0 0.0 4.3 0.00 0.10 0.00 87 1009.9
20260510114550 53 0 0.0 4.3 0.00 0.10 0.00 87 1009.9
20260510113048 52 206 0.0 4.3 0.00 0.10 0.00 89 1010.0
20260510111547 52 0 0.0 0.0 0.00 0.10 0.00 90 1009.9
20260510110053 51 0 0.0 0.0 0.00 0.10 0.00 90 1009.4
20260510104554 52 0 0.0 0.0 0.00 0.10 0.00 90 1009.3
20260510103055 52 0 0.0 5.2 0.00 0.10 0.00 90 1009.0
20260510101552 50 0 0.0 5.2 0.00 0.10 0.00 93 1009.1
20260510100050 50 0 0.0 0.0 0.00 0.10 0.00 93 1008.6
20260510094552 50 0 0.0 1.7 0.00 0.10 0.00 94 1008.7
20260510093050 50 0 0.0 0.0 0.00 0.10 0.00 93 1008.6
20260510091558 50 0 0.0 0.0 0.00 0.10 0.00 92 1008.5
20260510090059 50 0 0.0 0.0 0.00 0.10 0.00 93 1008.3
20260510084555 50 0 0.0 0.0 0.00 0.10 0.00 92 1008.0
20260510083056 51 0 0.0 0.0 0.00 0.10 0.00 92 1007.8
20260510081555 51 0 0.0 0.0 0.00 0.10 0.00 92 1007.9
20260510080051 51 0 0.0 0.0 0.00 0.10 0.00 91 1007.8
20260510074554 52 0 0.0 0.0 0.00 0.10 0.00 88 1007.4
20260510073109 53 0 0.0 5.2 0.00 0.10 0.00 89 1008.1
20260510071601 53 0 0.0 7.8 0.00 0.10 0.00 89 1007.9
20260510070051 53 0 0.0 11.3 0.00 0.10 0.00 89 1008.4
20260510064556 53 263 0.0 8.7 0.00 0.10 0.00 89 1008.5
20260510063059 53 268 0.9 11.3 0.00 0.10 0.00 89 1008.5
20260510061551 53 212 2.6 7.8 0.00 0.10 0.00 88 1008.7
20260510060055 53 0 0.0 5.2 0.00 0.10 0.00 88 1008.5
20260510054554 52 0 0.0 3.5 0.00 0.10 0.00 89 1008.1
20260510053054 52 0 0.0 0.0 0.00 0.10 0.00 89 1008.2
20260510051556 53 0 0.0 0.9 0.00 0.10 0.00 87 1008.1
20260510050050 53 0 0.0 9.6 0.00 0.10 0.00 87 1008.3
20260510044552 54 0 0.0 12.2 0.00 0.10 0.00 87 1008.5
20260510043105 53 0 0.0 0.9 0.00 0.10 0.00 88 1008.5
20260510041555 53 257 0.0 12.2 0.00 0.10 0.00 88 1008.2
20260510040055 53 0 0.0 9.6 0.00 0.10 0.00 89 1008.2
20260510034550 52 0 0.0 5.2 0.00 0.10 0.10 93 1008.2
20260510033054 51 0 0.0 5.2 0.00 0.10 0.10 95 1008.0
20260510031555 49 0 0.0 2.6 0.00 0.10 0.10 97 1008.5
20260510030049 47 0 0.0 0.0 0.00 0.10 0.10 96 1008.4
20260510024549 47 0 0.0 0.0 0.00 0.10 0.10 96 1008.4
20260510023049 47 0 0.0 0.0 0.00 0.10 0.10 96 1008.5
20260510021550 47 0 0.0 0.0 0.00 0.10 0.10 96 1008.5
20260510020052 47 0 0.0 0.0 0.00 0.10 0.10 95 1008.7
20260510014605 47 0 0.0 0.0 0.00 0.10 0.10 95 1008.7
20260510013053 47 0 0.0 0.0 0.00 0.10 0.10 95 1008.8
20260510011555 47 0 0.0 0.0 0.00 0.10 0.10 95 1008.8
20260510010052 47 0 0.0 0.0 0.00 0.10 0.10 95 1008.7
20260510004553 47 0 0.0 0.0 0.00 0.10 0.10 95 1008.9
20260510003049 47 0 0.0 0.0 0.00 0.10 0.10 95 1008.8
20260510001555 47 0 0.0 0.0 0.00 0.10 0.10 95 1008.7
20260510000055 47 0 0.0 0.0 0.00 0.10 0.10 95 1008.5
20260509234551 47 0 0.0 0.0 0.00 0.10 0.10 95 1008.4
20260509233053 47 0 0.0 0.0 0.00 0.10 0.10 95 1008.4
20260509231550 47 0 0.0 0.0 0.00 0.10 0.10 95 1008.2
20260509230053 47 0 0.0 0.0 0.00 0.10 0.10 95 1008.2
20260509224556 47 0 0.0 0.0 0.00 0.10 0.10 95 1008.3
20260509223059 47 0 0.0 0.0 0.00 0.10 0.10 95 1008.4
20260509221603 47 0 0.0 0.0 0.00 0.10 0.10 95 1008.5
20260509220052 47 0 0.0 0.0 0.00 0.10 0.10 94 1008.6
20260509214558 47 0 0.0 0.0 0.00 0.10 0.10 95 1008.7
20260509213054 47 0 0.0 0.0 0.00 0.10 0.10 95 1009.0
20260509211558 46 0 0.0 0.0 0.01 0.10 0.10 94 1009.0
20260509210107 46 0 0.0 0.0 0.01 0.10 0.10 94 1009.1
20260509204557 46 0 0.0 0.0 0.01 0.10 0.10 94 1009.1
20260509203053 46 0 0.0 0.0 0.01 0.10 0.10 94 1009.4
20260509201558 46 0 0.0 0.0 0.00 0.09 0.09 93 1009.4
20260509194548 46 0 0.0 0.0 0.00 0.09 0.09 93 1009.7
20260509193051 46 0 0.0 0.0 0.00 0.09 0.09 93 1009.8
20260509191601 46 0 0.0 0.0 0.00 0.09 0.09 93 1009.9
20260509190107 45 0 0.0 0.0 0.00 0.09 0.09 93 1010.0
20260509184556 45 0 0.0 0.0 0.00 0.09 0.09 93 1010.1
20260509183055 46 0 0.0 0.0 0.00 0.09 0.09 93 1010.0
20260509181551 46 0 0.0 0.0 0.01 0.09 0.09 93 1010.0
20260509180059 46 0 0.0 0.0 0.01 0.09 0.09 93 1010.3
20260509174553 45 0 0.0 0.0 0.02 0.09 0.09 93 1010.5
20260509173050 45 0 0.0 0.0 0.04 0.09 0.09 92 1010.5
20260509171556 45 0 0.0 0.0 0.05 0.08 0.08 92 1010.8
20260509164558 46 0 0.0 0.0 0.06 0.07 0.07 91 1011.2
20260509163053 46 0 0.0 0.0 0.05 0.05 0.05 90 1011.3
20260509161559 45 0 0.0 0.0 0.03 0.03 0.03 88 1011.6
20260509160054 45 0 0.0 0.0 0.02 0.02 0.02 86 1011.5
20260509154600 46 0 0.0 0.0 0.01 0.01 0.01 84 1011.6
20260509153100 47 0 0.0 0.0 0.00 0.00 0.00 81 1011.7
20260509151600 47 0 0.0 0.0 0.00 0.00 0.00 77 1011.8
20260509150054 48 0 0.0 0.0 0.00 0.00 0.00 71 1011.8
20260509144557 47 0 0.0 0.0 0.00 0.00 0.00 70 1011.8
20260509143055 47 0 0.0 0.0 0.00 0.00 0.00 70 1011.8
20260509141552 48 0 0.0 0.0 0.00 0.00 0.00 72 1011.8
20260509140103 48 0 0.0 0.0 0.00 0.00 0.00 71 1011.8
20260509134625 47 0 0.0 0.0 0.00 0.00 0.00 70 1011.6
20260509133056 47 0 0.0 0.0 0.00 0.00 0.00 70 1011.6
20260509131556 48 0 0.0 0.0 0.00 0.00 0.00 70 1011.8
20260509130050 48 0 0.0 0.0 0.00 0.00 0.00 67 1011.7
20260509124551 49 0 0.0 0.0 0.00 0.00 0.00 66 1011.7
20260509123054 48 0 0.0 0.9 0.00 0.00 0.00 71 1011.9
20260509121555 48 0 0.0 0.0 0.00 0.00 0.00 71 1011.8